Weather History for CWSA - November, 2013

Change the Weather History Date:

Saturday, November 2, 2013

  Actual Average Record
Temperature  
Mean Temperature 60 °F -  
Max Temperature 63 °F 50 °F 66 °F (2014)
Min Temperature 57 °F 42 °F 30 °F (2002)
Degree Days  
Heating Degree Days 5    
Growing Degree Days 10 (Base 50)    
Moisture  
Dew Point 58 °F    
Average Humidity 96    
Maximum Humidity 100    
Minimum Humidity 88    
Precipitation  
Precipitation 0.83 in - - ()
Sea Level Pressure  
Sea Level Pressure 29.71 in    
Wind  
Wind Speed 23 mph ()    
Max Wind Speed 43 mph    
Max Gust Speed 50 mph    
Visibility 1.3 miles    
Events Rain    
Averages and records for this station are not official NWS values.
T = Trace of Precipitation, MM = Missing Value Source: Averaged Metar Reports

Daily Weather History Graph

Daily Weather History Graph

Search for Another Location

Airport or City:

Trip Planner

Search our weather history database for the weather conditions in past years. The results will help you decide how hot, cold, wet, or windy it might be!

Date:

Astronomy

Nov. 02, 2013 Rise Set
Actual Time 7:37 AM ADT 5:48 PM ADT
Civil Twilight 7:07 AM ADT 6:18 PM ADT
Nautical Twilight 6:33 AM ADT 6:52 PM ADT
Astronomical Twilight 6:00 AM ADT 7:26 PM ADT
Moon 6:28 AM ADT (11/2) 5:17 PM ADT (11/2)
Length of Visible Light 11h 10m
Length of Day
10h 10m
Waning Crescent, 1% of the Moon is Illuminated
Nov 2
Waning Crescent
Nov 3
New
Nov 10
First Quarter
Nov 17
Full
Nov 25
Last Quarter

Hourly Weather History & Observations

Time (ADT) Temp. Dew Point Humidity Pressure Visibility Wind Dir Wind Speed Gust Speed Precip Events Conditions
12:00 AM 62 °F 59 °F 88% 29.78 in 3 mi SSW 31.1 mph - -  
12:00 AM 62.6 °F 59.0 °F 88% 29.78 in 3.0 mi SSW 31.1 mph - N/A   Partly Cloudy
12:04 AM 62.6 °F 59.0 °F 88% 29.77 in 3.0 mi SSW 28.8 mph 35.7 mph N/A Rain Light Rain
12:11 AM 62.6 °F 59.0 °F 88% 29.76 in 2.5 mi SSW 29.9 mph 35.7 mph N/A Rain Light Rain
12:20 AM 62.6 °F 59.0 °F 88% 29.76 in 1.4 mi SSW 32.2 mph - N/A Rain Light Rain
12:25 AM 62.6 °F 59.0 °F 88% 29.76 in 1.0 mi SSW 29.9 mph 36.8 mph N/A Rain Light Rain
12:34 AM 60.8 °F 59.0 °F 94% 29.76 in 0.8 mi SSW 31.1 mph - N/A Rain Rain
12:48 AM 60.8 °F 60.8 °F 100% 29.74 in 1.5 mi SSW 29.9 mph - N/A Rain Light Rain
12:49 AM 60.8 °F 60.8 °F 100% 29.73 in 1.5 mi SSW 28.8 mph 34.5 mph N/A Rain Light Rain
12:55 AM 60.8 °F 59.0 °F 94% 29.72 in 2.2 mi SSW 29.9 mph 36.8 mph N/A   Partly Cloudy
1:00 AM 60.8 °F 59.0 °F 94% 29.72 in 2.4 mi South 32.2 mph - N/A   Partly Cloudy
2:00 AM 62.6 °F 59.0 °F 88% 29.70 in 2.4 mi SSW 29.9 mph 35.7 mph N/A   Partly Cloudy
3:00 AM 62 °F 60 °F 91% 29.69 in 2 mi SSW 29.9 mph - -  
3:00 AM 62.6 °F 60.8 °F 94% 29.69 in 2.2 mi SSW 29.9 mph 39.1 mph N/A   Partly Cloudy
3:06 AM 62.6 °F 60.8 °F 94% 29.68 in 2.2 mi SSW 28.8 mph 38.0 mph N/A Rain Light Rain
3:25 AM 62.6 °F 60.8 °F 94% 29.69 in 2.2 mi SSW 33.4 mph - N/A   Partly Cloudy
4:00 AM 62.6 °F 60.8 °F 94% 29.69 in 2.5 mi SSW 33.4 mph 42.6 mph N/A   Partly Cloudy
4:26 AM 62.6 °F 60.8 °F 94% 29.69 in 1.6 mi SSW 32.2 mph 38.0 mph N/A Rain Light Rain
4:28 AM 62.6 °F 60.8 °F 94% 29.69 in 1.4 mi SSW 32.2 mph 38.0 mph N/A Rain Light Rain
4:32 AM 62.6 °F 60.8 °F 94% 29.69 in 1.0 mi SSW 33.4 mph - N/A Rain Light Rain
4:34 AM 62.6 °F 60.8 °F 94% 29.69 in 0.6 mi SSW 32.2 mph 38.0 mph N/A Rain Light Rain
4:42 AM 62.6 °F 60.8 °F 94% 29.69 in 0.5 mi SW 38.0 mph 43.7 mph N/A Rain Rain
4:44 AM 64.4 °F 62.6 °F 94% 29.69 in 0.5 mi SW 40.3 mph 47.2 mph N/A Rain Rain
4:46 AM 64.4 °F 62.6 °F 94% 29.69 in 0.4 mi SW 42.6 mph 49.5 mph N/A Rain Rain
4:49 AM 64.4 °F 62.6 °F 94% 29.69 in 0.4 mi SW 38.0 mph 49.5 mph N/A Rain Rain
4:55 AM 62.6 °F 62.6 °F 100% 29.71 in 1.0 mi SW 34.5 mph 49.5 mph N/A Rain Rain
4:57 AM 62.6 °F 60.8 °F 94% 29.71 in 1.5 mi SW 31.1 mph 48.3 mph N/A Rain Rain
5:00 AM 62.6 °F 60.8 °F 94% 29.71 in 2.0 mi SW 34.5 mph 48.3 mph N/A Rain Rain
5:04 AM 62.6 °F 60.8 °F 94% 29.70 in 2.0 mi SW 28.8 mph 39.1 mph N/A Rain Light Rain
5:17 AM 62.6 °F 60.8 °F 94% 29.70 in 1.6 mi SW 28.8 mph 38.0 mph N/A   Partly Cloudy
5:54 AM 60.8 °F 59.0 °F 94% 29.73 in 1.6 mi SW 27.6 mph 34.5 mph N/A Rain Light Rain
5:56 AM 60.8 °F 59.0 °F 94% 29.73 in 1.5 mi SW 26.5 mph 33.4 mph N/A Rain Light Rain
6:00 AM 61 °F 59 °F 91% 29.73 in 1 mi SW 27.6 mph - - Rain Light Rain
6:00 AM 60.8 °F 59.0 °F 94% 29.73 in 1.4 mi SW 27.6 mph - N/A Rain Light Rain
6:28 AM 60.8 °F 59.0 °F 94% 29.73 in 1.1 mi SW 25.3 mph 31.1 mph N/A Rain Light Rain
6:36 AM 60.8 °F 59.0 °F 94% 29.74 in 1.1 mi SW 27.6 mph - N/A Rain Light Rain
6:38 AM 60.8 °F 59.0 °F 94% 29.74 in 1.1 mi SW 27.6 mph - N/A Rain Light Rain
6:47 AM 60.8 °F 59.0 °F 94% 29.75 in 1.4 mi SW 26.5 mph 34.5 mph N/A Rain Light Rain
6:52 AM 60.8 °F 59.0 °F 94% 29.75 in 1.4 mi SW 26.5 mph 34.5 mph N/A   Mostly Cloudy
6:54 AM 59.0 °F 59.0 °F 100% 29.75 in 1.4 mi WSW 24.2 mph 31.1 mph N/A   Overcast
6:56 AM 59.0 °F 59.0 °F 100% 29.74 in 1.4 mi SW 21.9 mph 29.9 mph N/A   Mostly Cloudy
6:57 AM 59.0 °F 59.0 °F 100% 29.74 in 1.5 mi SW 20.7 mph 29.9 mph N/A   Mostly Cloudy
6:58 AM 59.0 °F 59.0 °F 100% 29.74 in 1.4 mi SW 21.9 mph 29.9 mph N/A   Mostly Cloudy
7:00 AM 59.0 °F 59.0 °F 100% 29.74 in 1.2 mi SW 20.7 mph 29.9 mph N/A   Mostly Cloudy
7:27 AM 60.8 °F 59.0 °F 94% 29.74 in 1.4 mi SW 26.5 mph - N/A Rain Light Rain
7:31 AM 59.0 °F 57.2 °F 94% 29.75 in 1.4 mi SW 26.5 mph - N/A Rain Light Rain
7:34 AM 59.0 °F 57.2 °F 94% 29.75 in 1.8 mi SW 26.5 mph - N/A Rain Light Rain
8:00 AM 60.8 °F 59.0 °F 94% 29.76 in 2.4 mi SW 27.6 mph - N/A Rain Light Rain
9:00 AM 59 °F 57 °F 91% 29.76 in 2 mi SW 21.9 mph - -   Unknown Precipitation
9:00 AM 59.0 °F 57.2 °F 94% 29.76 in 1.5 mi SW 20.7 mph - N/A Rain Light Rain
9:38 AM 57.2 °F 57.2 °F 100% 29.77 in 1.4 mi SW 19.6 mph - N/A Rain Light Rain
9:46 AM 57.2 °F 57.2 °F 100% 29.75 in 1.4 mi SW 17.3 mph 23.0 mph N/A Rain Light Rain
9:58 AM 57.2 °F 55.4 °F 94% 29.77 in 1.6 mi SW 19.6 mph - N/A Rain Light Rain
10:00 AM 57.2 °F 55.4 °F 94% 29.77 in 1.6 mi SW 19.6 mph - N/A   Overcast
10:18 AM 57.2 °F 55.4 °F 94% 29.77 in 2.0 mi SW 16.1 mph 21.9 mph N/A Rain Light Rain
11:00 AM 57.2 °F 57.2 °F 100% 29.78 in 1.5 mi SW 16.1 mph - N/A Rain Light Rain
11:11 AM 57.2 °F 55.4 °F 94% 29.78 in 1.5 mi SW 15.0 mph - N/A Rain Light Rain
11:41 AM 57.2 °F 55.4 °F 94% 29.75 in 1.4 mi SW 13.8 mph - N/A Rain Light Rain
11:43 AM 57.2 °F 55.4 °F 94% 29.75 in 1.4 mi SW 15.0 mph - N/A Rain Light Rain
12:00 PM 57 °F 56 °F 95% 29.76 in 1 mi SW 12.7 mph - - Rain Light Rain
12:00 PM 57.2 °F 55.4 °F 94% 29.76 in 1.1 mi SW 13.8 mph - N/A Rain Light Rain
12:21 PM 57.2 °F 55.4 °F 94% 29.76 in 1.1 mi SW 12.7 mph - N/A Rain Light Rain
12:25 PM 57.2 °F 55.4 °F 94% 29.75 in 1.1 mi SW 12.7 mph - N/A Rain Light Rain
1:00 PM 57.2 °F 55.4 °F 94% 29.75 in 1.1 mi SW 11.5 mph - N/A Rain Light Rain
1:18 PM 57.2 °F 55.4 °F 94% 29.74 in 1.0 mi SW 10.4 mph - N/A Rain Light Rain
1:25 PM 57.2 °F 55.4 °F 94% 29.73 in 1.0 mi SSW 11.5 mph - N/A Rain Light Rain
1:34 PM 57.2 °F 55.4 °F 94% 29.75 in 1.1 mi SW 11.5 mph - N/A Rain Light Rain
1:39 PM 57.2 °F 55.4 °F 94% 29.74 in 1.0 mi SW 11.5 mph - N/A Rain Light Rain
2:00 PM 57.2 °F 57.2 °F 100% 29.74 in 0.8 mi SW 9.2 mph - N/A Rain Light Rain
2:23 PM 57.2 °F 55.4 °F 94% 29.71 in 0.8 mi SSW 8.1 mph - N/A Rain Light Rain
2:24 PM 57.2 °F 55.4 °F 94% 29.71 in 0.6 mi SSW 6.9 mph - N/A Rain Light Rain
2:30 PM 57.2 °F 57.2 °F 100% 29.71 in 0.6 mi SSW 8.1 mph - N/A Rain Light Rain
2:35 PM 57.2 °F 55.4 °F 94% 29.71 in 0.6 mi SSW 6.9 mph - N/A Rain Light Rain
2:42 PM 57.2 °F 55.4 °F 94% 29.70 in 0.6 mi SSW 6.9 mph - N/A Rain Light Rain
2:46 PM 57.2 °F 55.4 °F 94% 29.70 in 0.6 mi South 6.9 mph - N/A Rain Light Rain
3:00 PM 57 °F 56 °F 97% 29.70 in 0 mi South 8.1 mph - -   Unknown Precipitation
3:00 PM 57.2 °F 57.2 °F 100% 29.70 in 0.5 mi South 9.2 mph - N/A Rain Light Rain
3:55 PM 57.2 °F 57.2 °F 100% 29.70 in 0.4 mi SSW 10.4 mph - N/A Rain Light Rain
4:00 PM 57.2 °F 57.2 °F 100% 29.70 in 0.4 mi SSW 10.4 mph - N/A Rain Light Rain
4:26 PM 59.0 °F 59.0 °F 100% 29.67 in 0.5 mi SSW 13.8 mph - N/A Rain Light Rain
4:34 PM 59.0 °F 59.0 °F 100% 29.66 in 0.5 mi SSW 15.0 mph - N/A   Overcast
4:48 PM 59.0 °F 59.0 °F 100% 29.67 in 0.6 mi SSW 16.1 mph - N/A Rain Light Rain
5:00 PM 59.0 °F 59.0 °F 100% 29.68 in 0.6 mi SSW 16.1 mph - N/A Rain Light Rain
5:23 PM 59.0 °F 59.0 °F 100% 29.68 in 0.4 mi SSW 19.6 mph - N/A Rain Light Rain
5:41 PM 59.0 °F 59.0 °F 100% 29.69 in 0.5 mi SSW 19.6 mph - N/A Rain Light Rain
6:00 PM 59 °F 59 °F 99% 29.68 in 1 mi SSW 18.4 mph - - Rain Light Rain
6:00 PM 59.0 °F 59.0 °F 100% 29.68 in 0.8 mi SSW 18.4 mph - N/A Rain Light Rain
6:03 PM 59.0 °F 59.0 °F 100% 29.67 in 1.0 mi SSW 18.4 mph - N/A Rain Light Rain
6:11 PM 60.8 °F 59.0 °F 94% 29.66 in 1.0 mi SSW 20.7 mph - N/A   Partly Cloudy
6:14 PM 60.8 °F 59.0 °F 94% 29.66 in 1.5 mi SSW 21.9 mph - N/A   Partly Cloudy
6:21 PM 60.8 °F 59.0 °F 94% 29.67 in 1.6 mi SSW 24.2 mph - N/A Rain Light Rain
6:50 PM 59.0 °F 59.0 °F 100% 29.68 in 2.1 mi SW 18.4 mph 25.3 mph N/A   Partly Cloudy
6:57 PM 59.0 °F 59.0 °F 100% 29.68 in 2.0 mi SSW 20.7 mph - N/A Rain Light Rain
7:00 PM 60.8 °F 59.0 °F 94% 29.69 in 2.0 mi SSW 21.9 mph - N/A Rain Light Rain
7:07 PM 59.0 °F 59.0 °F 100% 29.68 in 2.1 mi SSW 20.7 mph - N/A   Partly Cloudy
7:23 PM 59.0 °F 57.2 °F 94% 29.68 in 1.8 mi SSW 20.7 mph - N/A Rain Light Rain
7:49 PM 59.0 °F 57.2 °F 94% 29.68 in 1.5 mi SSW 19.6 mph - N/A   Partly Cloudy
7:51 PM 59.0 °F 57.2 °F 94% 29.68 in 1.5 mi SSW 19.6 mph - N/A Rain Light Rain
7:52 PM 59.0 °F 59.0 °F 100% 29.68 in 1.4 mi SSW 19.6 mph - N/A Rain Light Rain
7:53 PM 59.0 °F 59.0 °F 100% 29.68 in 1.4 mi SSW 18.4 mph - N/A   Partly Cloudy
8:00 PM 59.0 °F 59.0 °F 100% 29.69 in 1.4 mi SSW 17.3 mph - N/A   Partly Cloudy
8:08 PM 59.0 °F 59.0 °F 100% 29.68 in 1.4 mi SSW 17.3 mph - N/A Rain Light Rain
8:32 PM 59.0 °F 57.2 °F 94% 29.68 in 1.4 mi SSW 15.0 mph - N/A Rain Light Rain
8:42 PM 59.0 °F 57.2 °F 94% 29.68 in 1.1 mi SSW 16.1 mph - N/A Rain Light Rain
9:00 PM 59 °F 58 °F 97% 29.68 in 1 mi SSW 15.0 mph - -   Unknown Precipitation
9:00 PM 59.0 °F 59.0 °F 100% 29.68 in 1.1 mi SSW 15.0 mph - N/A Rain Light Rain
9:12 PM 59.0 °F 59.0 °F 100% 29.66 in 1.1 mi SSW 13.8 mph - N/A Rain Light Rain
9:21 PM 59.0 °F 57.2 °F 94% 29.67 in 1.0 mi SW 13.8 mph - N/A Rain Light Rain
9:28 PM 59.0 °F 57.2 °F 94% 29.67 in 0.6 mi West 5.8 mph - N/A Rain Rain
9:31 PM 59.0 °F 57.2 °F 94% 29.67 in 0.6 mi SW 4.6 mph - N/A Rain Rain
9:51 PM 59.0 °F 59.0 °F 100% 29.66 in 0.6 mi SSW 13.8 mph - N/A Rain Rain
10:00 PM 59.0 °F 59.0 °F 100% 29.66 in 1.0 mi SSW 12.7 mph - N/A Rain Light Rain
10:12 PM 59.0 °F 59.0 °F 100% 29.66 in 0.8 mi SSW 11.5 mph - N/A Rain Light Rain
10:24 PM 59.0 °F 59.0 °F 100% 29.65 in 0.6 mi SSW 13.8 mph - N/A Rain Light Rain
10:41 PM 60.8 °F 59.0 °F 94% 29.65 in 1.0 mi SSW 17.3 mph - N/A Rain Light Rain
11:00 PM 60.8 °F 59.0 °F 94% 29.64 in 1.0 mi SSW 16.1 mph - N/A Rain Light Rain
11:53 PM 60.8 °F 59.0 °F 94% 29.62 in 1.0 mi SSW 19.6 mph - N/A Rain Light Rain
11:55 PM 60.8 °F 59.0 °F 94% 29.63 in 0.6 mi SSW 19.6 mph - N/A Rain Rain
11:57 PM 60.8 °F 59.0 °F 94% 29.64 in 0.6 mi SW 17.3 mph 24.2 mph N/A Rain Rain
11:58 PM 60.8 °F 59.0 °F 94% 29.64 in 0.6 mi WSW 17.3 mph 24.2 mph N/A Rain Rain
11:59 PM 60.8 °F 59.0 °F 94% 29.64 in 0.5 mi West 15.0 mph 24.2 mph N/A Rain Rain